Regional Weather Roundup
Issued by NWS

Home | Current Version | Previous Version | Text Only | Print | Product List | Glossary Off
Versions: 1 2 3 4 5 6 7 8 9 10 11 12 13 14 15 16 17 18 19 20 21 22 23 24 25 26 27 28 29 30 31 32 33 34 35 36 37 38 39 40 41 42 43 44 45 46 47 48 49 50

000
ASUS43 KMKX 170320
RWRWI

WISCONSIN REGIONAL WEATHER ROUNDUP
NATIONAL WEATHER SERVICE MILWAUKEE/SULLIVAN WI
900 PM CST TUE JAN 16 2018

NOTE: "FAIR" INDICATES FEW OR NO CLOUDS BELOW 12,000 FEET WITH NO
SIGNIFICANT WEATHER AND/OR OBSTRUCTIONS TO VISIBILITY.

WIZ001-002-006>008-014>016-023>028-170400-
NORTHWEST WISCONSIN

CITY           SKY/WX    TMP DP  RH WIND       PRES   REMARKS
SUPERIOR ARPT  FAIR       6  -1  71 SW9       30.46F WCI  -8
ASHLAND        FAIR       8   1  73 SW10      30.44F WCI  -6
HAYWARD        FAIR       4  -3  73 SW3       30.46S
SIREN          FAIR       2  -5  74 SW8       30.51S WCI -12
CUMBERLAND     FAIR       1  -6  71 W7        30.48F WCI -11
RICE LAKE      FAIR       2  -3  78 CALM      30.51F
CHETEK         FAIR       0  -4  82 MISG      30.50F
LADYSMITH      FAIR       2  -2  81 SW3       30.47F
EAU CLAIRE     FAIR       0  -4  83 SW8       30.53F WCI -14
MENOMONIE      FAIR       1  -5  78 SW6       30.54F WCI -11
NEW RICHMOND   FAIR      -1  -6  78 SW6       30.53F WCI -12
OSCEOLA        FAIR       0  -5  78 SW3       30.56F
$$

WIZ003>005-009-010-017-018-170400-
NORTH CENTRAL WISCONSIN

CITY           SKY/WX    TMP DP  RH WIND       PRES   REMARKS
MANITOWISH WTR FAIR       6   5  94 W7        30.36F WCI  -5
ARBOR VITAE    FAIR       9   6  88 W5        30.37S WCI   1
WOODRUFF       FAIR       9   6  88 W5        30.37S WCI   1
RHINELANDER    FAIR       7   4  87 W10       30.37F WCI  -8
EAGLE RIVER    FAIR       3  -1  83 W5        30.35S WCI  -6
LAND O LAKES   FAIR      -3  -6  84 CALM      30.36S
PHILLIPS       FAIR       5   2  85 CALM      30.41S
TOMAHAWK       FAIR       7   4  86 W5        30.40F WCI  -2
MEDFORD        FAIR       2  -1  87 W6        30.42F WCI -10
MERRILL        FAIR       8   5  87 W6        30.43F WCI  -2
$$

WIZ029-030-035-036-043>047-170400-
CENTRAL WISCONSIN

CITY           SKY/WX    TMP DP  RH WIND       PRES   REMARKS
WAUSAU         FAIR       7   4  87 W10       30.43F WCI  -8
MOSINEE        CLEAR      7   3  85 W9        30.46F WCI  -7
MARSHFIELD     FAIR       3   0  87 W8        30.46S WCI -10
STEVENS POINT  FAIR       8   5  89 W7        30.48S WCI  -4
WAUPACA        FAIR      16   9  75 W7        30.49S WCI   6
WAUTOMA        FAIR       8   6  92 W10       30.51S WCI  -6
WISC RAPIDS    FAIR       7   2  80 W7        30.51S WCI  -5
CAMP DOUGLAS   CLEAR      1   0  92 W3        30.52S
$$

WIZ011>013-019>022-031-037>040-048>050-170400-
NORTHEAST WISCONSIN

CITY           SKY/WX    TMP DP  RH WIND       PRES   REMARKS
ANTIGO         FAIR       7   5  89 W7        30.40S WCI  -4
SHAWANO        MOCLDY    17  10  74 W3        30.46S
OCONTO         FAIR       1  -3  85 CALM      30.46F
STURGEON BAY   FAIR       6   3  87 CALM      30.46F
GREEN BAY      FAIR       2  -1  88 SW6       30.47S WCI  -9
MANITOWOC      CLOUDY    14  11  87 W7        30.48F WCI   4
APPLETON       PTCLDY    10   5  79 W9        30.45S WCI  -2
CLINTONVILLE   FAIR      18  10  73 W8        30.47S WCI   7
OSHKOSH        FAIR      16  10  77 W3        30.48S
$$

WIZ032>034-041-042-053>061-170400-
SOUTHWEST WISCONSIN

CITY           SKY/WX    TMP DP  RH WIND       PRES   REMARKS
LA CROSSE      FAIR       3  -3  76 W8        30.59F WCI -10
SPARTA         FAIR       4   2  90 SW5       30.56S WCI  -5
VIROQUA        FAIR       3   1  91 W7        30.51F WCI -10
BOSCOBEL       FAIR       5   1  83 SW6       30.59S WCI  -6
PRAIRIE DU CHI FAIR       2  -4  75 W5        30.61S WCI  -7
PLATTEVILLE    FAIR       4   2  93 W8        30.56S WCI -10
$$

WIZ056-057-062-063-064-067-068-170400-
SOUTH CENTRAL WISCONSIN

CITY           SKY/WX    TMP DP  RH WIND       PRES   REMARKS
REEDSBURG      FAIR       7   5  90 CALM      30.53S
BARABOO/DELLS  FAIR       8   4  85 W3        30.52S
LONE ROCK      FAIR       5   3  91 W3        30.57S
MINERAL POINT  FAIR       9   7  92 W8        30.53S WCI  -4
MADISON        FAIR      11   5  77 CALM      30.53S
MIDDLETON      FAIR      10   6  83 W8        30.53S WCI  -1
WATERTOWN      FAIR      10   9  92 CALM      30.51S
MONROE         FAIR      10   5  79 W14       30.52S WCI  -5
JANESVILLE     CLEAR      9   7  92 W5        30.54R WCI   0
$$

WIZ051-052-058>065-066-070>072-170400-
SOUTHEAST WISCONSIN

CITY           SKY/WX    TMP DP  RH WIND       PRES   REMARKS
MILWAUKEE      FAIR      16  11  80 W3        30.51S
WAUKESHA       CLEAR     10   7  85 W8        30.51R WCI  -1
MILWAUKEE/TIMM CLEAR     12   9  85 CALM      30.51S
RACINE         FAIR      13   9  84 W3        30.53R
BURLINGTON     FAIR       4   1  86 CALM      30.52R
KENOSHA        FAIR      10   5  80 W5        30.51S WCI   2
FOND DU LAC    CLOUDY    19  10  68 W10       30.49S WCI   7
SHEBOYGAN      CLOUDY     8   7  95 W5        30.48S WCI   0
WEST BEND      CLOUDY    14  12  92 W6        30.48F WCI   5
JUNEAU         CLOUDY    15  10  81 CALM      30.51S
$$

LSZ147-162-170400-
LAKE SUPERIOR

STATION/POSITION TIME  TEMP    WIND        PRES    WAVE
                       AIR SEA DIR/SP/G            HT/PER
                 (UTC) (F)     (DEG/KT/KT) (MB)    (FT/S)
DEVILS ISLAND    0300   17     250/ 25/ 30 1030.6F
SAXON HARBOR     0040   14     240/  5/  9 1031.5
$$

LMZ867-665-643>646-170400-
LAKE MICHIGAN

STATION/POSITION TIME  TEMP    WIND        PRES    WAVE
                       AIR SEA DIR/SP/G            HT/PER
                 (UTC) (F)     (DEG/KT/KT) (MB)    (FT/S)
NORTHPORT PIER   0233   15     260/  4/ 15 1030.8S
KEWAUNEE LAKESHO 0254   12     310/  4/  4 1030.9F
SHEBOYGAN LAKESH 0300   15     260/  9/ 10 1033.6F
PORT WASHINGTON  0230   15     290/  4/  7 1033.9S
MILWAUKEE LAKESH 0300   18     280/  7/  8   N/A
KENOSHA   LAKESH 0300   14     280/  9/ 11 1033.2
$$

TC  - TEMPERATURE IN CELSIUS
VSB - VISIBILITY IN STATUTE MILES
WCI - WIND CHILL INDEX
HX  - HEAT INDEX




USA.gov is the U.S. government's official web portal to all federal, state and local government web resources and services.